Theta_e
304 303 303 302 302 302 302 303 305 306 306 305 304 303 303 303 303 304 304 304 305 305 305 306 305 305 306 305 306 306 306 306 306 306 307 307 307 307 307 308 308 307 308 310 313 313 312 312 311 310 311 312 311 313 313 313 313 313 314 314 313 314 314 314 315 315 315 316 317 317 317 315 316 323 328 326 323 327 331 334 339 336 336 341 343 344 344 345
303 303 302 302 302 303 305 306 307 306 305 304 304 303 302 302 303 304 305 305 305 305 305 305 305 306 306 306 306 306 306 306 306 308 309 309 308 307 307 307 307 308 309 312 313 312 311 311 311 310 311 312 312 312 313 314 313 313 314 314 314 315 315 315 315 315 316 316 316 317 317 315 317 323 328 327 325 329 331 334 339 337 338 342 344 344 343 344
303 302 303 304 306 308 309 309 308 306 305 304 303 304 303 302 303 304 304 305 305 305 305 305 306 306 306 306 306 305 306 309 311 312 312 312 311 308 307 307 307 309 312 313 313 311 310 310 310 310 312 313 312 312 313 313 313 313 314 313 314 315 315 315 315 315 315 316 316 317 316 316 320 324 327 327 328 330 330 333 337 338 339 342 344 343 343 344
304 305 307 309 310 310 310 309 308 307 306 305 303 304 304 303 303 303 303 304 305 305 305 305 305 305 305 305 305 305 309 313 315 314 313 311 310 308 307 307 307 311 313 312 311 310 309 309 310 311 312 313 312 312 312 313 313 313 313 313 314 315 314 314 315 315 315 315 315 316 315 317 319 322 326 328 329 327 329 335 336 338 340 342 344 342 342 344
309 310 310 311 310 310 310 309 308 308 306 305 304 303 304 304 303 303 303 303 304 304 304 305 305 305 305 304 304 306 311 316 315 313 312 311 308 307 307 306 308 313 313 312 311 309 309 310 310 310 311 313 313 312 313 313 312 313 313 314 315 315 313 314 314 314 314 315 315 315 315 315 317 320 325 329 328 326 330 335 336 339 340 342 343 342 342 342
311 311 310 310 311 311 310 309 309 309 308 306 304 304 304 304 304 304 303 303 303 303 303 304 304 304 304 304 306 309 313 316 314 313 313 311 309 307 307 306 309 313 312 311 311 309 310 310 310 311 311 313 313 312 313 313 312 312 313 314 314 314 314 314 314 314 314 314 315 315 315 315 315 318 324 328 328 326 329 333 336 340 340 342 343 341 341 341
311 310 311 311 311 311 311 311 311 311 310 308 305 303 303 304 304 304 304 304 303 303 303 303 303 303 304 307 310 312 314 315 312 312 314 312 310 308 307 307 311 313 312 311 311 309 310 310 311 312 311 312 312 312 312 312 312 312 313 314 313 313 314 314 314 314 314 314 315 315 315 315 315 317 323 328 328 326 326 331 337 341 341 342 342 340 341 340
311 311 310 311 312 312 312 312 313 313 313 312 309 305 303 304 304 304 304 304 304 304 303 303 303 303 305 309 312 315 315 313 310 312 315 312 311 310 308 309 312 313 312 312 311 310 310 310 312 311 312 312 311 312 312 312 312 312 312 313 314 314 314 314 314 315 314 314 315 314 315 315 315 318 322 327 328 326 328 332 337 340 341 342 341 339 340 339
312 312 311 311 311 312 313 313 313 313 312 313 313 310 304 303 304 304 305 304 304 304 304 304 303 304 307 309 313 316 314 311 310 313 314 312 311 311 310 311 311 312 312 312 311 310 311 312 312 312 313 313 312 312 312 312 312 313 312 313 314 314 315 315 315 315 314 314 314 315 315 316 316 317 321 325 328 328 331 335 338 339 340 341 340 339 340 339
312 312 312 311 311 312 312 312 312 312 312 312 315 315 309 304 304 304 305 304 304 305 304 304 304 305 308 310 313 316 312 309 310 311 311 311 311 311 312 312 312 313 313 312 310 310 311 312 313 313 313 313 312 313 313 313 313 314 314 314 314 314 315 314 314 314 314 314 314 315 316 316 316 317 320 324 328 330 332 336 338 339 340 341 340 339 339 338
313 313 313 312 312 312 312 312 311 311 311 311 314 317 315 308 304 304 305 305 304 304 305 304 304 307 308 310 314 315 311 309 309 308 308 309 311 311 312 312 312 313 313 311 311 311 312 313 313 313 314 313 313 314 314 314 314 314 314 314 315 315 315 314 315 314 315 315 314 316 316 316 317 317 319 323 327 331 333 335 338 340 340 340 340 339 338 337
312 313 314 313 312 312 312 311 310 310 311 311 313 316 318 312 306 305 305 305 304 304 304 304 305 306 308 311 314 313 311 310 309 309 309 308 310 311 311 311 311 313 312 311 311 310 312 312 312 313 314 314 313 314 314 313 313 314 314 314 314 315 314 314 315 315 315 315 313 316 315 316 317 317 320 323 326 330 332 334 337 339 341 340 340 339 338 338
308 311 313 313 312 312 311 311 310 309 310 311 312 315 318 314 308 305 305 305 305 305 304 305 306 307 311 315 315 313 312 311 311 310 310 310 309 309 308 307 309 310 310 310 310 310 311 311 312 313 313 314 315 314 313 314 314 314 314 314 314 314 314 315 316 315 316 314 313 315 314 315 317 317 321 323 325 329 331 334 335 339 341 340 340 340 340 339
306 308 310 312 312 311 311 310 309 309 309 312 313 314 316 315 311 309 307 305 304 305 305 306 308 310 314 316 313 313 313 312 312 312 312 311 310 310 309 308 309 310 310 311 311 311 311 311 311 313 313 314 315 313 313 314 314 314 314 313 314 313 313 316 316 315 316 314 314 315 314 315 316 317 321 323 325 328 329 332 334 338 340 340 341 341 340 340
305 305 307 309 310 311 310 309 308 308 310 312 313 314 315 314 313 312 311 308 306 307 306 306 308 311 316 315 313 313 313 313 314 313 311 311 310 311 311 311 311 310 311 311 311 311 310 310 312 314 314 313 313 314 314 314 314 314 313 312 313 313 313 316 316 317 315 314 316 315 313 315 316 316 320 322 324 327 328 330 333 336 339 340 340 340 340 339
304 304 305 306 308 309 309 308 308 308 310 313 314 313 314 314 313 313 313 312 311 310 308 308 308 312 316 316 314 315 315 315 315 313 312 310 310 311 311 310 311 311 310 310 310 310 310 312 313 313 314 313 313 314 313 313 313 314 314 312 313 312 313 314 316 317 317 315 316 315 315 316 316 316 319 322 323 326 326 328 333 336 337 338 338 338 338 337
304 304 304 305 306 307 307 308 307 308 311 314 314 313 315 313 312 314 314 313 313 311 311 309 308 312 316 315 315 316 315 315 314 313 313 311 311 311 311 310 311 311 311 310 310 311 311 313 314 313 314 314 314 314 313 312 312 313 314 314 314 313 314 314 314 317 318 316 317 316 316 316 316 317 319 321 323 324 325 326 331 334 335 336 337 337 337 336
304 304 304 304 305 306 307 307 307 309 312 314 313 313 314 313 312 314 315 314 312 311 311 309 309 314 314 313 315 316 315 315 314 314 313 311 311 311 311 312 311 311 311 311 312 312 312 313 315 314 315 315 314 314 313 312 313 313 314 314 314 313 313 314 315 317 317 316 316 316 316 317 317 316 317 320 322 324 325 326 330 333 334 335 335 335 335 336
304 304 305 305 304 305 306 306 307 311 313 314 313 313 314 313 313 314 315 314 314 315 315 312 312 315 314 314 315 315 314 314 314 314 313 312 312 311 312 312 311 311 312 313 313 313 314 314 314 314 315 315 315 315 313 313 314 314 315 314 314 313 313 315 316 317 317 316 316 317 316 317 317 316 317 319 322 324 325 327 330 330 332 333 334 334 334 334
304 304 304 304 304 305 306 307 310 312 313 313 313 314 316 316 317 317 316 315 315 316 316 314 314 315 315 315 315 315 314 314 313 314 314 312 312 312 312 312 312 313 313 314 314 315 315 315 314 314 315 316 316 316 317 316 315 316 315 314 313 313 313 316 317 317 318 317 316 317 317 317 317 317 317 319 321 323 325 327 328 328 329 330 331 333 334 334
304 304 305 305 305 306 307 309 312 313 313 313 313 315 317 316 316 317 316 316 315 314 314 315 314 314 316 315 314 315 315 314 313 313 313 313 312 313 312 312 312 312 313 314 315 315 314 314 314 315 316 317 317 318 318 318 317 316 315 314 314 314 314 316 317 317 318 317 316 317 316 316 318 318 317 317 318 321 324 326 327 327 326 327 329 331 333 334
303 304 304 305 306 307 309 311 312 312 313 314 313 315 316 314 313 313 313 315 316 314 314 314 313 314 314 314 314 314 316 315 314 313 313 313 313 313 312 312 312 313 314 314 314 314 313 314 315 316 317 317 318 318 318 319 318 316 315 315 314 314 315 316 318 318 317 317 316 317 316 316 318 319 318 318 317 319 322 324 326 325 325 325 326 328 330 333
303 304 305 305 307 309 310 311 312 312 313 314 314 315 315 313 312 311 312 316 316 316 315 315 314 315 315 315 314 314 316 316 315 314 313 312 313 313 313 312 312 313 313 313 314 313 312 314 316 317 317 318 319 319 319 318 317 316 315 314 314 315 315 315 317 318 319 318 317 317 316 316 318 318 319 319 319 320 321 321 323 324 324 324 324 325 327 330
302 303 305 306 307 309 310 312 312 312 312 313 313 314 313 312 311 312 314 317 317 317 317 316 315 315 315 315 315 315 316 316 316 315 313 313 313 313 313 313 312 312 312 312 313 312 312 315 316 316 316 317 319 320 319 316 315 317 317 315 315 316 315 315 317 318 319 319 318 317 314 315 317 318 318 319 319 319 319 318 319 320 321 322 324 324 325 327
302 303 304 305 307 309 309 311 312 312 312 313 313 313 313 312 310 312 316 319 318 317 316 315 315 315 315 315 316 316 317 317 316 316 314 313 313 313 313 313 312 313 312 312 312 312 314 316 316 315 316 317 318 318 318 316 315 316 317 317 316 317 317 317 317 317 316 316 318 317 313 312 316 317 318 319 318 317 318 318 318 318 318 319 320 322 323 324
302 302 303 304 306 308 309 312 312 311 312 314 313 313 313 311 310 313 317 319 317 316 316 315 315 316 316 316 317 317 317 315 314 314 314 313 313 312 312 312 312 313 312 312 313 312 313 315 315 316 316 317 316 316 317 317 314 314 317 317 316 317 318 317 317 316 313 314 317 318 313 312 315 317 318 319 318 317 318 318 317 318 318 317 318 318 320 322
303 302 303 304 305 306 309 312 312 311 313 314 312 311 312 311 310 315 319 318 316 315 315 315 314 314 315 315 316 316 315 313 312 312 313 313 312 312 312 313 312 312 312 314 313 312 314 315 315 316 317 316 315 315 317 317 314 315 319 318 316 317 318 318 317 315 314 315 317 317 315 312 312 315 318 318 317 317 318 318 318 317 317 317 317 317 317 319
304 303 302 304 304 304 306 309 310 311 313 312 311 311 311 309 311 318 321 317 316 315 314 314 313 313 312 313 315 315 314 313 312 312 311 312 312 312 313 313 313 312 313 313 312 313 315 315 315 315 315 314 314 315 317 317 315 317 319 318 316 318 318 317 316 314 315 315 314 315 315 313 312 314 318 317 316 316 318 318 318 317 317 317 317 318 317 318
305 304 303 303 305 304 306 308 310 312 312 310 310 309 309 310 315 321 319 316 316 314 312 313 312 312 312 312 313 314 314 314 313 311 310 311 311 312 312 313 313 312 312 312 312 314 315 313 314 313 312 313 314 316 317 318 318 317 317 317 316 317 317 317 315 314 315 315 313 314 316 314 312 314 316 316 315 316 317 317 317 318 318 318 318 318 317 317
305 306 304 303 305 304 305 308 310 311 311 309 308 307 310 315 320 320 317 315 315 313 312 312 312 312 312 312 313 314 314 314 313 311 311 312 311 311 311 311 313 312 313 313 313 313 313 312 312 312 312 313 315 315 316 316 317 317 316 316 316 316 316 316 315 313 314 313 313 314 316 314 312 313 315 316 316 316 317 317 318 319 318 317 318 318 317 316
306 308 306 305 306 307 308 310 310 309 308 308 307 310 316 320 320 318 316 315 314 312 312 312 311 311 311 313 313 313 313 313 313 312 312 312 312 312 311 311 312 313 313 313 313 313 312 312 312 312 313 314 313 314 314 315 315 316 316 316 315 315 315 314 314 314 313 313 314 315 315 314 312 312 315 317 316 316 317 317 317 318 318 317 317 316 316 316
306 308 308 309 311 311 312 313 311 309 310 310 310 315 320 318 317 317 315 314 313 313 312 311 310 310 311 312 312 312 312 312 312 313 312 312 313 313 312 312 313 313 312 312 313 313 313 313 312 312 312 313 312 312 314 314 315 315 315 315 314 313 314 313 312 313 312 313 314 314 314 314 312 313 316 316 316 316 316 317 316 316 317 317 316 316 316 316
307 309 310 312 314 314 314 313 311 310 312 313 313 318 318 313 314 317 315 314 313 312 311 311 310 311 311 311 311 311 312 311 311 312 312 312 313 312 311 310 312 312 312 312 312 312 312 313 312 312 312 313 312 312 312 314 314 314 314 313 313 313 314 314 312 312 311 313 315 315 314 313 312 314 317 317 316 316 315 315 315 315 315 316 316 316 317 316
308 310 311 313 315 315 314 314 312 310 310 313 315 316 313 310 313 317 316 314 312 311 311 310 310 311 311 311 310 310 311 311 311 311 312 312 312 313 312 310 310 312 312 312 312 311 311 312 312 312 312 312 312 312 312 313 313 314 314 313 313 313 313 313 312 311 311 313 314 315 314 313 312 315 316 315 315 315 314 313 313 314 314 316 317 317 317 317
307 311 312 313 316 316 315 314 313 310 309 315 316 312 309 308 311 316 315 312 312 312 311 310 310 312 311 310 310 310 310 311 310 311 312 312 312 313 313 312 311 311 312 312 312 312 310 311 312 311 311 311 312 312 313 312 312 314 314 312 312 313 313 312 313 313 311 312 314 314 313 313 314 315 315 315 314 313 313 313 313 314 315 316 317 318 318 318
306 310 312 313 315 315 315 314 312 308 310 315 313 309 309 309 311 314 313 311 311 312 312 311 311 312 311 311 310 310 310 310 310 311 311 312 312 312 312 311 311 311 312 312 312 312 311 311 312 311 311 311 311 312 313 312 312 313 313 312 313 313 313 313 314 314 311 311 313 312 313 313 314 315 314 314 313 312 312 313 313 314 315 316 317 318 318 318
305 309 312 313 314 315 315 313 310 309 312 314 310 309 311 311 312 312 311 310 310 310 312 312 312 311 312 311 310 310 310 310 310 310 310 311 311 311 311 311 311 311 312 312 313 313 311 312 312 312 312 311 310 312 312 312 312 312 312 312 313 313 313 313 313 313 312 312 313 312 313 313 312 313 314 313 313 312 311 312 313 314 315 315 316 317 318 318
305 308 311 312 314 316 314 310 309 312 314 313 310 311 313 312 311 311 310 310 310 310 311 313 312 311 311 312 311 310 310 311 310 310 310 310 311 311 311 311 310 310 311 311 313 313 312 311 312 312 311 311 311 311 311 311 311 312 312 312 312 312 312 313 313 313 313 313 313 312 313 312 311 313 314 314 314 313 312 312 313 314 315 315 316 317 317 318
305 310 312 312 312 314 311 308 310 314 315 312 310 312 313 312 310 310 309 310 310 311 312 312 312 311 311 311 311 310 310 311 310 311 310 310 311 311 310 311 311 310 311 311 312 313 312 312 312 312 312 311 311 311 311 311 311 311 311 312 312 312 312 312 313 313 312 312 313 313 312 312 312 313 314 314 314 313 313 312 312 314 314 315 316 316 317 317
306 310 313 312 310 310 309 309 312 314 313 312 311 313 313 312 310 309 308 309 310 311 311 312 312 312 312 311 310 310 310 310 310 310 310 309 310 310 310 310 310 311 311 311 312 312 313 312 311 311 312 312 311 312 312 311 312 312 311 312 312 312 312 312 312 312 312 312 312 313 312 312 314 315 315 314 315 314 313 313 313 314 314 314 315 316 315 316
304 309 313 312 310 309 309 310 312 314 313 312 312 313 312 311 310 309 308 308 309 310 310 311 311 311 312 311 311 311 310 310 309 309 309 308 308 310 310 309 310 310 310 310 311 312 311 311 311 311 312 312 311 312 311 311 312 312 312 312 312 312 312 312 312 311 312 311 311 312 312 313 314 316 315 314 315 313 313 313 313 313 314 314 314 314 314 314
305 308 310 309 308 309 310 311 313 313 313 312 312 311 310 309 310 309 309 308 309 309 310 310 311 311 311 311 311 310 310 310 309 309 309 308 308 309 309 309 310 310 310 310 311 313 312 310 310 310 310 310 311 311 311 311 311 311 312 312 312 313 312 312 312 312 312 312 312 312 312 313 315 315 315 315 314 313 312 312 313 313 314 314 313 313 313 313
307 308 308 306 307 309 310 311 311 311 312 311 310 310 309 309 309 309 309 310 309 309 310 310 310 310 311 310 310 309 309 309 309 308 308 308 308 309 309 309 311 311 311 310 311 312 312 310 309 309 309 310 310 310 310 310 310 311 312 312 312 312 312 312 313 313 313 312 312 312 312 313 314 314 314 315 314 312 312 312 313 313 314 314 313 313 313 313
307 308 309 306 306 308 310 310 310 310 311 312 311 309 308 308 309 309 309 309 309 309 310 310 309 309 309 309 309 309 308 308 308 308 308 309 309 308 308 309 311 311 311 311 312 312 310 310 310 309 309 310 310 310 310 309 310 311 312 312 311 311 312 313 312 312 313 312 312 311 311 312 313 312 312 312 312 311 311 312 313 314 314 313 313 313 313 313
307 309 309 307 306 308 310 310 311 311 311 312 311 310 309 308 308 308 309 309 308 309 309 309 309 308 308 308 308 309 308 308 308 308 308 308 308 307 308 308 310 312 312 311 312 311 308 309 311 309 308 309 309 309 310 309 309 310 311 311 310 310 311 312 312 312 312 312 312 311 312 312 313 311 311 311 311 311 311 312 312 314 313 313 313 313 313 313
308 308 308 308 307 309 309 309 310 311 310 310 310 310 310 310 308 307 307 308 308 308 309 308 308 308 308 308 308 308 308 307 308 308 308 308 308 307 307 307 308 311 311 309 310 311 309 310 311 309 309 309 309 309 310 309 309 310 309 310 310 310 310 311 311 311 312 312 311 312 312 312 312 312 311 311 311 311 311 311 312 313 313 313 313 313 312 312
308 308 308 308 307 308 309 308 309 310 309 309 310 310 310 310 309 307 307 307 307 307 308 308 307 308 309 309 310 309 309 308 308 308 309 308 308 307 306 307 307 307 308 309 308 309 309 309 310 311 310 309 309 309 309 308 308 308 308 309 310 310 311 310 310 310 311 311 311 312 312 312 311 311 311 311 311 311 311 312 312 312 313 313 312 312 311 311
306 307 307 306 307 308 308 307 308 308 308 309 309 309 309 309 309 308 307 307 307 307 308 308 307 307 308 308 309 310 309 309 309 310 309 308 308 307 306 307 307 305 307 308 308 309 309 308 309 310 309 308 308 308 308 308 307 308 308 309 310 310 310 311 310 310 310 310 310 311 311 311 311 310 310 311 311 312 312 311 312 313 313 312 312 311 310 310
306 306 305 305 307 307 306 306 307 308 308 308 308 307 308 308 308 307 306 307 308 307 307 308 307 306 306 307 308 309 310 310 309 310 310 309 308 308 307 307 307 306 307 307 308 308 308 308 309 309 307 308 307 307 307 307 307 307 308 308 309 309 310 310 311 310 310 310 310 311 311 311 310 310 310 311 312 312 312 312 313 313 313 312 311 311 310 310
304 304 305 306 306 306 306 306 307 307 307 308 308 306 307 307 307 306 304 306 308 307 307 308 307 305 305 306 308 309 309 309 309 309 309 309 308 308 308 308 307 307 307 306 307 308 306 307 309 308 307 307 307 307 307 307 306 307 307 307 308 308 309 309 310 310 310 311 311 310 311 311 310 309 310 312 312 311 312 313 313 312 312 311 311 311 310 309
300 300 302 306 306 304 306 306 306 306 306 307 307 306 306 305 305 305 304 303 305 306 306 307 307 306 306 306 307 306 305 305 307 307 306 307 307 306 307 307 306 307 306 306 307 307 306 307 308 307 306 306 306 306 306 306 306 305 306 306 307 308 308 308 309 310 310 310 310 310 310 309 310 309 310 311 311 310 311 311 311 312 312 311 311 310 309 308
299 299 300 304 305 303 304 305 305 305 305 305 305 305 305 304 304 305 304 303 303 303 303 305 307 306 306 307 306 304 302 303 304 304 304 304 305 305 305 305 305 305 306 306 306 306 306 306 306 306 305 305 305 305 305 305 304 304 305 306 306 307 307 307 308 309 310 310 309 309 309 309 309 309 309 310 310 310 309 310 311 312 312 311 310 310 308 307
Wind_Speed
6 5 4 3 3 3 5 6 6 8 8 7 7 7 6 6 5 4 2 0 0 1 1 2 3 3 3 4 4 4 5 6 7 9 8 4 6 8 9 8 9 9 8 10 11 10 9 9 8 9 9 9 9 8 8 7 6 6 6 6 6 5 3 1 3 2 4 3 3 7 9 10 10 3 3 4 10 11 12 11 7 8 6 8 15 22 24 22
5 4 3 2 3 4 5 6 6 7 7 6 6 6 6 5 4 3 3 1 1 1 1 1 2 2 3 3 3 4 4 5 5 6 5 3 7 8 8 9 9 9 8 10 10 10 9 9 9 10 10 9 8 8 8 8 8 8 5 5 6 4 1 2 3 4 5 6 8 9 9 10 10 4 2 5 11 13 12 12 11 11 10 13 19 21 22 22
4 3 3 3 4 5 5 6 6 6 6 6 5 5 5 5 4 3 3 2 1 1 0 1 2 2 3 3 2 2 1 2 2 1 1 2 5 7 9 9 9 10 10 9 9 9 8 8 9 10 10 9 7 8 9 8 8 8 5 6 5 3 3 3 4 6 7 9 10 9 10 10 6 3 3 5 9 13 12 12 14 15 15 17 21 20 21 22
5 5 5 5 5 5 6 7 7 7 6 5 5 4 4 4 4 3 2 2 1 1 0 1 2 2 2 2 2 1 2 4 3 2 1 1 2 6 9 10 11 12 11 10 8 8 7 7 9 9 9 8 7 8 8 8 6 5 6 7 4 2 4 5 5 6 8 9 11 10 11 8 4 3 5 6 7 10 12 11 12 15 18 20 22 21 22 23
5 5 5 6 6 6 7 7 8 8 7 6 4 4 4 4 4 3 3 2 1 1 1 1 1 2 1 1 0 1 2 3 4 1 0 2 1 5 9 10 12 13 12 10 8 7 7 8 8 9 9 7 7 9 7 8 5 4 7 10 7 5 6 5 5 5 7 9 10 10 9 7 6 5 6 7 7 4 6 9 7 12 18 21 22 22 23 23
5 6 6 7 7 7 7 8 8 8 8 7 5 4 3 3 3 4 3 2 1 1 0 1 1 1 1 1 2 1 3 1 5 2 1 2 2 4 8 11 14 14 12 9 7 7 7 8 9 9 9 6 7 7 5 7 7 6 8 9 8 8 7 7 7 7 7 9 10 8 7 7 8 6 5 9 5 4 3 7 7 12 16 18 21 21 22 24
5 6 7 8 7 7 7 7 8 8 9 9 8 5 3 3 3 4 4 2 2 1 1 1 1 1 1 3 4 3 1 4 4 3 2 2 4 6 8 11 13 13 11 8 7 7 7 9 9 7 7 5 6 6 4 7 9 9 7 5 7 8 8 9 9 8 8 10 10 9 8 8 8 4 3 8 3 5 3 7 9 13 15 17 20 19 21 23
4 5 7 8 8 7 7 8 9 9 10 10 10 8 5 3 3 3 3 2 2 1 2 2 2 3 3 3 2 2 3 5 4 0 3 4 5 6 8 11 13 12 10 8 6 6 7 8 6 6 6 3 4 6 5 7 10 10 8 5 7 7 8 9 8 9 10 11 10 8 9 7 6 2 2 6 5 4 4 9 12 15 16 17 19 19 21 22
3 4 5 6 7 7 7 7 8 9 11 11 10 10 8 5 3 3 4 2 2 2 3 2 3 3 3 3 2 3 4 5 2 3 5 6 6 6 8 9 11 10 9 7 6 6 7 6 4 4 4 3 5 5 6 8 6 7 8 7 7 8 8 7 8 9 8 7 5 5 6 3 3 4 4 4 6 6 6 10 14 17 19 18 18 20 21 21
2 3 4 4 5 5 6 6 7 9 10 11 11 10 8 7 5 4 4 3 2 2 2 2 4 4 3 3 4 2 6 6 5 5 6 7 6 6 7 7 8 9 8 7 6 6 4 4 3 2 2 4 5 3 5 7 1 2 7 8 9 10 8 7 7 7 6 5 4 5 3 2 4 6 3 5 6 7 8 10 13 16 19 19 19 20 21 20
3 3 3 3 4 4 5 6 7 8 10 12 12 10 8 7 6 5 4 3 2 2 2 3 4 3 3 1 5 1 7 7 7 6 7 8 6 6 6 6 8 8 7 7 7 5 3 3 3 3 3 5 5 5 5 4 3 3 7 8 10 9 5 5 5 5 6 4 4 7 3 3 5 3 3 6 7 8 9 11 13 15 17 19 20 21 20 19
5 4 4 4 4 4 4 5 6 8 9 11 11 10 8 7 6 5 4 3 3 3 3 3 3 3 2 1 3 4 8 7 7 6 8 9 7 7 6 6 7 7 6 6 6 4 3 2 1 3 1 3 5 5 4 2 4 6 7 7 7 6 4 2 2 3 5 3 3 6 5 7 7 3 7 6 7 8 9 11 13 14 16 18 20 20 20 19
5 5 5 4 4 4 5 5 6 7 8 10 11 10 7 6 6 5 5 4 4 3 3 3 3 3 1 1 4 7 8 7 6 6 7 9 8 7 7 7 9 9 7 6 6 5 4 2 2 3 1 3 3 1 1 3 6 6 6 6 5 6 5 5 3 5 4 3 2 6 6 7 7 6 6 5 6 8 10 11 13 14 15 18 19 19 19 19
6 6 5 5 5 5 5 6 6 7 8 9 10 9 7 5 5 6 6 4 4 3 3 3 3 3 1 3 6 6 7 6 6 5 5 8 8 7 9 11 11 11 10 8 7 6 5 3 2 3 3 4 2 1 4 5 6 4 4 4 4 5 6 8 4 5 6 3 2 7 7 5 8 6 4 4 6 7 8 10 12 13 15 16 17 17 18 18
5 5 6 5 5 5 6 6 7 6 7 9 9 8 6 5 4 5 6 6 5 4 3 2 3 2 2 5 5 5 8 6 4 5 5 6 6 6 8 9 10 9 8 7 7 5 4 3 3 4 2 3 4 5 5 5 5 4 4 4 4 4 6 10 5 2 4 5 2 7 7 4 7 5 4 3 5 7 7 8 11 12 14 15 16 16 17 17
5 5 5 6 6 6 6 6 6 5 6 7 8 8 6 6 4 2 5 7 5 4 3 1 2 1 2 5 7 6 8 5 4 6 7 8 6 6 7 9 8 6 5 5 4 4 3 2 3 3 2 4 5 5 4 4 5 5 4 2 3 4 4 8 7 6 4 4 4 5 7 2 6 5 4 3 4 6 7 8 10 11 13 14 14 15 16 17
4 4 4 5 5 5 5 5 6 4 5 6 8 8 6 8 6 1 3 8 7 5 3 1 3 2 1 5 7 6 5 5 7 7 8 9 9 7 7 7 5 2 2 3 3 3 3 3 3 3 3 3 3 4 5 5 4 5 4 1 2 3 2 5 8 6 2 3 3 3 7 3 4 3 2 3 5 6 7 7 8 10 11 12 13 15 17 17
4 3 3 3 4 4 4 4 4 2 3 5 7 7 7 9 6 2 2 10 7 4 2 2 4 2 3 7 5 4 4 5 10 9 9 10 9 8 6 6 4 3 6 5 4 5 4 4 4 3 4 4 3 5 5 2 1 3 4 2 3 4 3 2 5 5 3 3 3 3 7 3 2 2 4 5 6 7 8 7 6 8 10 11 13 15 17 17
3 3 2 2 2 2 3 3 2 1 3 4 5 7 6 8 3 4 4 11 5 3 1 4 5 2 3 7 4 3 2 6 11 10 10 11 10 9 7 5 5 6 7 6 6 6 4 4 5 4 4 3 1 3 4 4 3 2 2 3 3 4 4 1 5 6 5 3 4 3 4 3 0 2 5 5 6 8 9 7 6 7 9 11 13 14 17 16
3 3 2 2 1 1 2 2 1 1 2 3 5 6 4 6 2 3 6 8 6 4 4 2 4 4 2 5 3 2 3 7 10 10 11 12 11 9 7 6 6 7 7 3 4 5 3 5 5 3 1 2 2 2 4 4 3 3 4 5 4 4 3 3 5 5 4 5 3 1 4 4 1 0 4 6 6 8 10 9 9 9 9 11 12 14 16 15
2 2 2 1 0 2 3 2 1 1 2 1 3 4 4 6 4 2 7 5 4 5 6 4 6 6 2 4 3 2 5 7 8 10 12 12 11 10 8 7 7 7 4 2 2 3 4 6 2 1 3 3 1 1 1 1 2 4 6 6 5 6 3 5 4 3 3 5 3 2 6 6 3 1 4 6 7 9 11 11 11 11 11 11 12 13 15 14
2 2 2 1 2 3 3 2 0 1 1 0 3 3 3 5 5 6 8 5 4 5 4 4 6 6 3 3 3 3 6 7 9 11 12 11 11 9 7 8 8 4 5 4 3 4 6 5 3 5 3 3 2 3 4 3 3 5 5 5 5 4 3 5 5 3 1 4 3 0 6 7 3 2 4 7 7 8 9 11 11 11 11 12 12 12 13 14
2 1 1 1 2 3 2 1 1 1 1 0 2 2 2 6 8 9 7 6 4 2 2 3 5 4 3 3 2 5 6 6 8 11 11 11 10 7 5 6 5 3 6 7 6 4 4 3 7 5 3 4 4 4 5 4 4 6 5 6 4 2 3 3 6 5 1 2 4 3 6 7 6 5 5 7 7 5 6 8 9 9 10 11 12 12 13 15
3 1 1 0 2 2 1 1 1 1 2 2 1 2 5 8 11 10 5 6 3 1 1 2 4 3 4 3 3 6 5 3 4 8 12 11 8 6 5 4 3 4 5 5 6 6 0 7 6 3 3 5 4 6 7 6 5 5 5 7 4 2 4 4 2 3 3 3 3 5 7 7 7 8 7 7 7 7 7 7 8 9 9 10 11 12 13 15
4 1 1 1 2 3 2 3 3 2 3 4 4 5 8 10 11 9 4 5 2 3 2 3 4 3 3 4 5 4 3 3 2 5 10 10 7 5 3 3 4 4 4 4 5 6 2 6 3 4 4 5 5 6 7 6 5 5 7 9 6 3 4 4 1 3 5 5 2 4 7 5 4 7 6 6 7 8 8 7 7 7 8 10 12 13 14 15
5 2 2 3 3 3 3 3 4 4 4 5 6 8 9 11 11 7 4 4 3 4 2 4 4 4 4 4 5 5 5 4 2 3 9 10 7 4 3 4 3 1 3 3 4 2 3 4 2 3 4 5 6 6 6 6 7 4 6 9 8 6 5 5 4 4 6 3 2 2 7 4 3 5 5 5 7 8 8 6 5 6 8 10 11 12 13 15
6 3 3 3 3 5 4 3 6 5 5 6 8 10 10 11 10 5 4 4 4 2 2 4 3 4 4 3 6 6 3 5 5 4 8 9 8 6 5 4 3 2 3 3 3 1 4 5 4 4 5 6 7 5 5 8 8 1 3 6 8 7 6 6 6 5 5 3 2 5 6 6 5 4 5 6 7 8 9 7 5 5 6 7 8 9 10 12
7 4 3 3 3 4 4 6 6 6 6 8 10 10 10 9 6 3 5 2 4 0 2 4 2 3 3 2 5 5 2 3 3 5 7 9 7 6 7 4 2 3 4 4 2 4 4 4 5 5 6 7 5 1 3 9 7 1 2 3 6 5 5 5 6 6 3 3 5 6 5 6 7 3 5 6 8 9 9 6 5 5 5 5 5 6 8 10
8 4 3 3 4 3 4 5 4 4 6 8 8 8 8 6 3 4 5 0 2 2 2 3 3 4 2 3 5 4 2 2 1 4 6 8 7 4 4 2 2 2 5 6 4 2 2 2 2 5 6 5 1 5 1 7 4 3 3 4 4 4 4 5 6 5 3 5 8 5 4 5 6 4 5 6 6 6 5 4 3 3 3 2 2 4 7 8
9 4 3 3 3 3 3 3 4 5 6 7 7 5 4 3 3 4 4 1 1 3 2 2 2 2 4 6 5 4 4 2 2 5 6 5 7 5 1 1 3 3 4 6 6 1 3 2 1 5 7 3 3 4 2 2 1 4 6 6 6 6 5 5 5 4 4 7 6 3 4 5 6 5 4 2 1 1 1 1 1 2 2 3 4 5 7 8
10 5 2 1 2 1 0 1 4 5 5 6 4 3 3 4 4 4 3 1 1 3 3 3 2 1 4 5 4 5 5 4 4 5 6 5 7 7 4 3 4 5 5 6 5 3 5 6 4 4 6 3 2 3 2 1 3 5 6 6 6 5 4 5 5 4 6 7 1 4 4 5 7 4 2 3 4 3 2 1 2 4 5 7 8 9 9 10
9 3 2 3 3 3 2 1 2 2 3 3 2 4 5 4 5 4 2 2 2 2 2 2 2 1 4 3 4 5 4 4 3 3 2 3 4 3 2 2 1 4 5 3 2 2 5 5 4 4 5 6 7 5 4 4 5 6 7 6 6 6 5 6 6 5 7 4 3 5 3 5 7 3 4 5 4 3 1 2 3 5 7 9 9 9 9 9
8 2 4 4 3 2 1 0 1 1 1 2 3 6 5 5 4 1 2 3 1 3 2 1 2 2 4 4 4 3 2 3 2 2 1 2 3 2 2 2 2 4 4 2 2 4 4 4 6 5 5 6 9 7 5 5 6 8 7 6 7 6 6 7 6 6 7 2 5 4 2 5 7 1 5 4 3 3 2 1 2 4 6 7 8 9 9 8
7 3 5 5 3 3 2 1 2 2 2 1 5 6 5 5 2 1 2 2 3 2 1 1 2 3 2 2 4 2 1 3 2 2 3 3 3 3 3 3 0 4 4 3 3 4 5 3 4 3 3 4 8 7 5 4 5 7 6 6 7 6 6 7 6 6 7 2 4 5 3 5 5 2 5 4 4 4 3 2 2 2 3 5 6 7 8 9
7 4 6 6 6 5 3 3 3 3 2 3 6 5 5 4 2 3 3 2 2 3 3 1 3 4 4 4 4 2 2 2 3 1 1 1 1 1 2 3 2 2 3 4 1 1 7 4 4 4 2 3 5 4 5 6 6 5 4 7 7 5 6 5 2 3 5 4 2 4 4 4 1 4 5 5 6 6 5 4 3 4 4 5 6 7 8 9
7 5 6 7 8 8 6 4 5 4 3 5 6 5 4 2 0 2 1 1 1 2 3 5 5 5 4 4 3 3 1 2 1 2 1 2 1 2 2 3 3 2 3 3 1 2 6 3 6 5 3 2 2 2 3 6 5 2 5 7 3 2 6 6 2 2 1 7 6 5 6 5 3 4 7 8 7 7 6 5 5 5 6 6 7 9 9 10
7 5 6 7 9 9 7 5 4 3 4 6 6 3 2 0 0 0 1 1 1 1 4 6 3 3 4 4 4 5 2 1 1 2 2 3 2 2 3 2 3 3 4 3 3 1 4 5 3 3 2 4 1 3 4 5 5 4 5 3 1 1 5 6 5 3 4 8 7 6 8 8 6 4 7 10 9 9 7 6 7 6 6 8 9 9 10 10
7 4 6 8 9 9 8 6 4 4 5 6 5 3 2 2 2 1 1 1 2 3 6 5 2 2 3 4 4 4 1 2 2 2 3 3 1 1 1 2 3 3 4 4 3 1 3 7 3 3 1 3 4 4 5 5 5 6 4 1 2 5 6 5 6 6 8 8 7 8 10 9 9 5 7 11 11 10 9 8 8 7 7 7 8 9 10 10
6 4 6 7 7 8 8 4 3 5 6 6 5 3 3 3 4 2 0 1 3 4 5 4 2 2 3 3 2 3 1 3 1 2 3 2 1 1 0 0 2 3 3 3 3 1 1 5 2 4 3 1 4 6 7 5 6 5 4 4 4 5 6 6 6 6 8 8 8 9 9 7 7 5 7 11 12 11 10 9 7 7 7 7 7 8 9 11
4 4 6 6 5 6 6 4 4 6 6 4 4 2 3 4 5 3 0 1 3 3 3 3 3 4 4 2 2 2 2 3 3 3 2 1 2 2 2 1 1 2 2 2 2 0 2 3 4 3 4 3 5 4 4 4 2 4 6 7 6 4 4 5 7 7 7 8 8 8 10 7 2 2 4 9 11 11 10 9 7 7 8 7 8 8 9 11
2 4 4 6 5 3 4 5 5 5 4 2 3 2 3 2 4 5 2 1 2 1 2 3 3 3 3 3 3 3 3 4 4 4 3 3 3 2 2 2 3 2 1 4 2 1 2 3 5 5 3 6 2 4 4 6 5 5 5 7 7 7 6 7 9 8 7 8 8 8 10 6 2 2 1 6 10 10 10 10 8 9 9 8 8 9 9 11
2 3 1 4 5 2 4 6 3 2 4 2 1 1 2 1 2 4 3 3 3 1 2 3 3 3 4 4 3 3 4 4 4 4 3 3 2 1 3 2 3 3 4 4 0 2 2 3 6 7 7 8 2 6 2 3 4 6 6 6 7 6 7 9 9 8 6 8 7 8 10 4 4 3 2 6 8 9 10 10 10 10 9 9 9 9 10 11
3 3 2 4 4 3 5 6 3 3 4 0 2 2 1 1 3 3 3 3 2 3 3 3 3 3 3 3 4 5 5 4 4 3 2 2 3 4 4 2 2 4 4 3 1 3 1 3 6 7 7 8 3 3 3 2 3 7 6 5 5 6 7 8 8 7 7 8 7 7 10 4 4 4 3 6 7 8 9 9 11 11 9 9 10 9 9 10
4 3 2 4 2 6 7 5 4 5 3 2 3 4 3 1 0 1 2 1 1 1 3 2 2 1 1 2 4 5 4 4 4 3 2 3 4 5 4 2 1 3 1 2 1 1 2 4 4 6 7 6 6 5 5 6 6 6 6 3 3 7 7 6 7 7 7 11 12 10 10 5 4 4 4 6 6 7 8 8 10 11 10 10 9 9 8 8
5 2 1 5 4 4 3 2 2 3 2 4 4 3 4 2 3 3 1 2 3 2 2 0 1 1 1 3 3 4 4 4 4 2 2 3 4 5 2 2 1 0 4 6 3 1 4 5 3 6 7 6 7 6 3 2 4 4 4 3 3 6 7 5 7 9 8 11 12 10 10 5 5 7 6 6 6 7 9 9 9 10 10 10 9 8 8 7
3 1 1 3 6 5 5 6 3 2 1 3 3 2 3 3 4 3 2 2 3 2 1 1 1 2 3 4 5 6 5 5 4 3 4 5 5 4 2 2 2 3 4 5 3 2 4 5 6 9 9 8 9 8 4 6 6 7 6 6 5 4 6 6 7 8 9 10 10 10 12 9 5 8 8 8 8 8 9 10 11 11 11 10 9 8 7 7
2 2 3 2 3 5 5 6 5 2 1 1 1 1 1 2 3 2 1 2 3 1 0 0 1 3 4 5 6 6 5 5 5 5 4 4 4 5 4 2 2 3 2 1 1 2 5 5 8 11 11 11 13 12 8 7 10 12 11 11 10 7 8 9 9 10 10 9 10 10 11 12 9 8 9 9 8 8 9 12 13 12 12 11 9 8 7 7
4 2 4 3 2 2 3 5 6 4 2 1 1 1 0 1 1 2 2 2 1 1 1 1 2 2 2 3 4 5 5 6 6 5 4 3 4 5 5 5 4 2 2 2 0 2 5 6 7 10 12 13 13 12 11 9 11 13 13 13 13 12 11 11 12 13 12 10 11 11 12 12 10 9 9 8 9 10 11 13 13 13 13 12 11 10 9 7
6 3 5 4 3 4 5 4 4 2 3 2 1 2 1 0 2 3 3 1 1 1 2 2 3 1 1 2 5 5 4 3 4 4 3 3 3 4 4 5 5 4 4 2 1 1 4 5 6 9 13 13 13 13 13 12 13 13 15 15 15 15 15 14 14 15 15 15 15 14 14 12 9 9 10 6 8 10 10 11 12 13 14 13 12 11 9 8
6 4 4 3 2 5 5 4 3 1 1 2 1 2 2 2 3 4 4 4 1 2 3 1 2 3 2 1 1 1 3 3 1 2 1 1 2 3 4 2 2 4 4 2 0 1 2 3 2 6 11 11 13 14 14 14 15 15 16 16 16 15 15 15 14 13 14 15 15 14 14 11 9 12 11 3 3 7 9 11 13 13 14 14 13 11 10 8
10 7 5 3 2 4 5 4 2 2 1 3 2 3 3 4 4 4 5 7 6 5 5 4 2 1 1 3 5 6 6 5 4 4 3 3 2 1 2 1 2 3 3 2 1 2 3 5 3 5 9 10 11 13 13 13 15 17 17 16 16 16 14 13 12 11 11 12 13 14 13 9 8 12 13 7 5 8 11 12 13 12 13 14 13 11 10 8
12 9 7 3 1 4 4 2 2 2 1 4 4 3 4 4 4 1 2 4 6 7 7 6 4 1 2 3 6 7 6 5 5 5 4 4 4 4 3 3 4 5 4 3 2 2 4 6 5 7 9 9 8 8 8 9 11 12 10 10 13 15 16 15 14 13 13 12 11 12 10 6 4 5 9 10 11 12 13 12 12 11 12 13 12 11 10 8
Wind_Direction
338 341 352 346 338 350 348 347 345 341 340 344 348 357 359 2 18 5 342 329 199 220 223 209 219 232 239 252 256 257 260 263 265 270 271 247 231 226 224 221 204 204 190 174 177 184 187 192 195 195 194 191 204 196 182 192 198 208 226 235 239 231 228 245 240 276 331 328 344 342 350 340 337 315 257 226 209 199 177 175 157 148 124 113 133 139 146 155
344 350 9 2 353 4 357 350 349 346 346 348 349 0 4 6 19 9 6 29 89 109 200 220 238 244 254 264 265 268 273 270 265 268 276 242 231 223 211 209 193 188 174 169 181 183 189 195 188 189 194 193 193 187 185 186 200 224 238 234 242 242 240 351 304 308 304 302 320 325 338 335 330 323 238 222 196 184 177 175 169 155 133 130 138 141 149 157
15 27 32 24 17 12 7 3 1 1 358 356 351 2 13 14 18 20 17 17 53 85 210 271 268 274 276 283 284 291 302 223 203 194 258 264 238 222 210 202 185 175 163 166 179 185 193 188 183 190 198 201 189 190 194 183 199 224 237 239 240 255 274 286 273 278 288 302 310 314 325 326 335 339 258 239 198 187 189 177 176 170 151 146 145 147 155 159
47 50 42 34 28 22 22 17 14 14 7 3 356 359 18 24 19 20 22 11 14 31 342 305 294 299 297 314 303 42 123 179 144 120 202 333 255 218 210 195 176 166 160 169 174 178 183 174 181 191 204 204 181 197 200 182 196 207 219 249 264 297 275 266 257 269 286 299 302 307 313 321 356 309 266 245 202 198 203 182 181 177 157 152 151 154 160 159
54 54 46 38 31 29 31 26 26 23 16 10 356 356 12 23 21 18 23 18 7 8 350 327 321 320 321 327 284 114 229 201 110 104 263 28 317 196 200 188 169 161 160 172 166 168 174 171 179 188 207 204 176 200 199 182 209 221 225 254 277 281 270 271 276 283 293 295 291 295 303 326 333 272 251 240 220 202 192 172 173 174 160 155 155 157 161 161
50 50 44 41 35 34 38 36 34 29 25 18 4 356 357 13 19 19 23 22 34 37 12 14 358 338 2 50 98 82 292 14 69 280 243 65 60 140 178 175 164 162 161 166 162 174 175 174 187 189 205 206 189 201 177 178 212 241 230 240 260 266 271 280 282 283 288 286 282 293 309 317 301 267 238 236 232 46 109 153 148 160 158 154 155 159 162 164
43 45 44 44 41 43 45 43 39 32 28 23 17 9 354 6 11 21 25 21 42 43 67 77 64 85 122 95 81 79 18 33 28 280 181 110 80 109 156 160 161 162 161 168 170 181 177 187 199 190 201 202 198 198 163 187 212 242 248 237 256 265 269 273 276 279 278 277 281 292 295 287 282 279 226 224 201 53 109 153 141 145 151 153 157 163 165 165
32 39 42 43 44 46 49 47 41 34 31 26 23 20 16 11 2 18 21 25 50 55 79 92 93 109 133 94 74 147 89 32 1 208 147 137 101 104 139 152 160 162 169 181 177 186 181 188 189 190 211 173 177 191 180 208 213 232 255 261 259 264 263 267 274 276 273 273 277 276 272 271 275 275 226 215 164 103 121 147 147 145 151 157 160 165 167 167
16 27 36 39 41 43 46 45 37 32 30 26 24 24 25 25 14 16 16 32 51 64 85 100 112 121 127 98 232 216 73 40 44 118 136 140 125 119 135 153 162 163 178 184 179 191 183 182 171 203 229 125 166 188 186 223 212 212 247 261 261 263 265 276 280 275 267 263 268 258 251 243 234 222 198 176 148 133 122 138 149 150 155 159 162 168 169 169
341 6 18 24 29 33 35 31 26 26 25 25 24 23 24 26 23 13 13 28 39 64 90 108 118 124 107 108 243 219 77 64 86 109 133 142 149 139 141 164 166 166 180 181 181 184 172 167 143 187 210 138 179 189 193 235 282 196 254 269 268 269 273 282 280 266 250 242 239 237 233 136 192 220 171 131 152 155 140 140 150 155 158 160 163 170 173 172
297 321 346 355 359 11 17 13 15 18 20 21 20 19 19 21 22 17 17 30 50 61 75 102 115 115 99 95 282 69 92 86 92 107 124 133 157 159 160 177 173 178 180 174 176 165 153 133 126 199 189 155 181 187 200 246 308 268 271 275 260 255 257 262 256 237 230 211 201 219 204 146 193 216 81 115 160 167 156 152 157 161 160 161 164 170 175 176
288 292 305 318 325 340 353 357 6 9 13 15 15 17 15 16 22 25 27 39 59 62 75 104 113 97 103 274 314 94 110 104 101 108 111 119 147 163 173 181 179 189 182 176 176 169 173 142 196 256 173 168 190 183 185 237 274 265 271 274 252 224 197 195 186 184 204 160 169 219 201 178 181 106 78 121 162 171 172 165 164 165 162 163 165 171 177 179
289 286 285 292 300 311 327 342 356 359 5 9 11 14 13 20 27 31 35 40 54 60 73 93 105 97 101 205 115 117 120 115 111 113 108 110 124 138 144 149 154 163 162 169 180 186 206 191 274 302 317 228 207 134 204 235 258 254 245 262 255 209 163 112 135 162 158 110 183 230 218 178 148 92 91 133 162 175 179 173 169 168 165 167 169 174 179 180
283 282 284 284 284 293 312 328 341 349 360 4 5 9 16 25 27 33 34 35 47 50 69 84 102 109 101 116 122 122 121 129 132 128 118 108 115 121 122 129 134 142 147 161 181 196 211 202 258 262 243 252 281 304 245 218 228 235 223 234 240 213 131 96 112 167 149 105 203 234 238 174 125 96 102 136 168 184 185 178 175 170 168 171 172 177 180 181
287 281 280 280 280 285 298 315 326 339 354 356 357 2 10 14 17 33 33 35 36 31 59 82 91 123 168 130 123 122 123 134 142 144 149 131 131 132 128 132 134 140 151 169 188 200 200 188 246 248 216 232 249 246 223 195 199 219 225 199 207 219 119 102 82 73 120 111 175 235 244 175 118 93 102 145 182 195 196 182 179 176 173 175 176 180 182 181
300 290 279 277 277 280 289 301 310 327 348 350 350 350 351 353 348 3 24 21 10 13 31 31 102 144 231 138 129 130 124 133 162 164 159 148 154 151 133 133 133 137 158 183 191 183 180 191 245 262 240 215 226 239 218 195 186 204 238 195 185 221 152 128 104 70 85 127 171 233 258 211 111 95 104 159 197 202 205 185 182 184 179 183 184 185 183 179
309 304 290 279 273 275 283 287 294 315 343 343 345 346 339 337 329 254 10 360 349 355 354 296 137 134 184 137 140 143 133 153 173 174 161 157 159 150 132 132 136 119 147 172 164 162 180 203 224 223 226 231 235 248 231 213 187 184 226 202 166 240 219 147 128 95 73 205 171 204 260 268 101 117 140 176 205 210 212 193 186 190 186 190 191 190 188 184
317 315 306 293 276 269 269 270 278 299 340 338 342 341 330 331 326 196 350 347 339 324 310 185 184 195 150 158 161 139 144 168 170 174 171 167 162 155 152 151 153 144 152 158 152 175 195 203 235 232 206 215 217 236 238 232 211 186 206 205 172 204 239 183 122 75 23 233 187 191 239 246 107 192 189 184 205 216 216 202 197 198 195 197 197 198 196 192
324 326 329 312 278 261 247 242 254 288 342 335 341 334 331 341 324 177 344 336 300 271 291 167 202 272 112 147 156 121 157 171 165 170 172 174 172 165 167 166 167 176 184 185 164 180 216 208 225 237 209 197 194 281 312 1 350 296 245 255 221 195 209 156 80 49 13 268 218 208 248 257 123 191 180 186 204 217 218 206 209 209 204 206 204 205 203 198
329 337 349 326 270 231 205 188 189 16 344 331 346 337 335 346 306 172 341 315 251 278 318 214 240 280 96 130 141 109 135 155 158 165 172 175 173 169 176 182 187 205 217 215 153 162 240 236 225 242 31 54 50 336 337 353 330 283 250 244 240 235 209 128 88 60 11 294 222 161 281 262 270 149 161 185 204 216 218 211 214 216 214 215 212 211 208 201
335 347 2 13 143 173 166 147 137 9 349 341 9 4 4 357 346 353 338 291 239 294 294 258 249 247 205 147 155 120 137 152 151 164 173 169 176 181 179 191 209 212 195 170 136 148 230 247 220 60 37 50 109 179 236 277 263 241 238 232 224 233 208 107 90 84 31 294 218 144 268 248 231 243 152 175 205 218 219 215 216 218 221 226 223 220 215 205
336 349 14 65 134 155 151 123 60 9 354 46 45 39 35 7 351 343 327 284 271 299 279 247 243 242 227 194 185 147 156 165 154 165 176 170 188 199 172 193 227 203 146 172 199 182 223 235 120 96 79 107 145 182 202 219 231 227 229 235 228 219 195 117 123 131 61 286 255 175 273 257 236 239 178 183 205 215 219 222 222 221 225 230 230 227 222 212
336 339 10 86 146 163 160 125 356 327 241 169 67 45 356 349 344 342 318 279 282 286 246 233 233 234 218 207 187 171 180 183 162 170 183 178 190 212 193 199 224 185 171 202 224 232 231 153 108 109 146 167 167 178 200 210 214 223 224 231 226 176 224 196 143 146 132 290 295 301 279 266 241 224 206 193 197 197 208 225 230 232 232 234 238 236 229 220
338 294 277 145 173 189 202 255 298 255 228 246 271 293 318 334 340 342 308 270 278 152 209 211 202 208 199 190 175 184 196 200 170 169 185 191 186 198 211 208 211 204 194 198 232 258 295 89 103 143 186 206 195 176 202 225 210 207 226 244 244 166 244 270 120 153 194 192 269 280 263 254 230 221 212 181 185 200 203 215 225 231 236 239 244 242 237 230
330 280 242 226 206 211 243 267 268 246 249 266 275 288 309 326 334 336 290 256 200 137 162 166 174 182 186 186 166 181 213 192 176 163 181 199 197 186 186 199 231 214 162 172 231 251 96 89 132 195 202 218 215 196 207 236 237 202 208 233 252 236 230 258 245 238 239 202 179 284 271 252 196 215 213 168 182 200 196 206 215 218 225 230 237 240 240 238
330 300 251 241 233 228 252 265 230 239 269 257 265 288 304 320 326 325 279 245 142 123 162 161 171 160 156 177 165 199 226 171 144 185 185 193 199 219 194 172 229 252 117 190 242 270 97 114 185 218 220 214 224 229 196 217 252 226 185 205 226 234 221 229 231 236 258 245 129 270 275 268 194 202 183 168 197 192 177 186 201 209 216 223 231 236 238 239
342 317 265 249 247 240 252 255 236 257 277 247 265 289 302 314 321 318 265 217 123 96 181 142 135 135 133 164 183 213 224 121 126 166 189 192 185 225 233 174 194 154 134 233 233 141 129 147 181 217 234 225 231 232 178 210 247 260 123 189 204 213 210 217 232 238 269 303 197 217 256 274 255 212 153 170 211 198 177 168 167 194 210 220 231 235 240 244
348 322 283 258 257 253 253 256 254 268 268 257 273 290 300 308 316 292 257 193 99 99 169 119 110 135 127 171 199 232 342 102 155 136 172 202 184 217 242 213 230 145 155 249 248 124 159 187 199 220 241 239 240 26 152 216 238 51 76 196 198 206 209 218 243 251 262 290 254 218 216 257 256 214 161 184 217 213 191 168 156 171 187 210 236 251 257 259
346 325 295 260 258 262 255 254 253 256 263 274 285 293 300 298 279 250 249 212 101 177 130 117 155 149 159 192 191 223 249 254 318 105 155 196 183 214 264 218 258 172 170 250 289 98 156 210 236 246 252 251 285 46 48 230 229 91 142 174 173 191 208 225 251 263 234 252 267 231 188 258 267 224 191 194 217 219 188 164 150 141 153 194 254 281 280 276
342 324 299 262 253 258 263 265 258 262 276 289 294 300 293 256 237 234 218 206 137 147 125 154 169 170 208 198 172 182 201 168 88 131 153 171 177 197 321 115 223 235 198 235 265 250 142 154 204 246 256 292 56 67 30 280 159 143 179 188 188 194 206 226 244 270 256 249 257 193 177 256 272 239 212 181 55 21 77 169 104 56 13 352 345 326 314 307
337 319 284 210 190 174 88 264 266 277 282 286 297 289 243 220 238 239 193 168 178 147 152 156 137 209 210 196 158 149 164 132 126 181 173 159 178 185 188 187 203 231 226 220 228 206 187 194 182 206 230 239 188 164 118 143 183 191 209 218 219 211 214 236 227 222 251 254 205 117 166 233 255 245 166 102 72 47 354 312 351 343 337 343 340 334 330 324
336 315 179 147 138 115 105 189 278 295 274 288 295 237 233 224 232 236 155 174 208 154 148 112 79 139 174 151 110 126 153 122 124 209 194 181 191 167 204 255 243 234 238 218 204 227 225 203 143 152 190 208 225 208 159 175 201 215 228 230 237 235 228 242 241 229 247 248 115 116 172 225 250 248 113 112 97 75 33 339 337 329 333 337 336 337 336 334
337 282 175 158 164 163 157 221 1 335 288 310 247 228 240 243 233 216 149 184 144 61 76 56 62 129 187 167 111 109 152 99 110 181 163 231 211 120 86 5 321 265 265 283 269 267 240 158 145 172 169 193 228 225 195 194 199 215 230 231 240 248 243 245 247 248 253 224 114 127 190 237 247 209 92 100 90 81 88 34 350 339 339 337 340 346 347 352
329 258 205 200 217 223 226 279 322 302 311 278 230 220 231 241 225 127 197 163 82 79 99 80 136 140 153 137 90 59 171 98 77 186 178 209 209 150 124 101 72 260 260 264 268 279 266 194 157 180 125 170 222 244 282 290 217 222 241 247 249 254 256 259 259 260 262 230 124 140 189 247 245 120 86 99 110 111 119 97 63 19 1 357 358 1 5 12
320 257 225 227 235 239 246 273 290 290 285 245 229 221 226 231 192 189 203 117 112 161 137 157 211 179 136 110 89 26 342 81 90 194 204 216 210 142 116 90 64 279 257 250 223 252 266 254 102 80 80 173 224 255 291 282 244 221 236 247 254 260 258 265 287 311 303 288 212 184 221 256 206 119 119 133 136 133 127 118 104 73 50 37 28 22 22 24
317 267 238 242 244 244 247 261 277 278 258 241 233 226 231 254 247 197 160 70 205 183 166 185 212 213 176 150 140 117 28 14 130 210 139 97 90 88 96 71 42 318 280 270 234 206 255 248 103 109 137 146 301 300 229 257 265 203 227 244 258 300 269 261 241 98 305 272 258 234 241 241 198 166 154 151 152 147 141 134 113 87 71 62 46 32 29 32
317 271 238 243 243 238 237 250 270 265 240 241 244 245 244 272 318 224 72 357 258 260 236 212 203 240 203 178 167 137 128 214 184 236 197 141 118 91 121 99 43 344 328 306 276 259 281 270 162 171 183 111 61 273 214 237 267 252 244 242 155 242 255 250 255 233 229 256 256 233 237 243 244 213 155 162 169 160 153 141 121 106 90 73 56 40 34 36
324 284 233 233 237 228 224 235 253 246 237 240 240 247 248 197 152 140 54 296 240 223 241 235 206 249 230 209 179 134 165 226 170 237 237 180 152 80 150 141 87 27 351 296 264 74 287 269 212 163 225 129 144 232 224 198 231 263 290 302 222 250 243 226 246 254 248 257 258 241 238 244 253 228 162 177 183 166 156 148 136 119 95 76 60 46 39 38
326 282 221 217 227 218 213 220 237 237 237 242 237 215 212 184 140 128 242 258 235 222 235 240 211 220 229 235 210 142 206 262 230 241 247 205 151 108 348 259 105 60 15 293 286 57 238 267 250 130 121 159 201 227 239 208 193 228 262 244 239 268 271 253 250 258 261 262 263 260 252 246 255 245 194 191 183 168 161 151 137 115 90 75 61 46 41 43
312 260 212 201 213 206 205 218 230 233 231 247 264 214 171 176 153 143 216 268 236 242 252 229 209 222 214 215 247 214 203 260 264 253 243 191 155 133 98 356 309 38 42 258 270 312 216 248 260 195 139 223 239 221 276 293 231 221 235 231 227 233 260 267 255 250 260 265 265 267 263 259 284 314 230 194 171 161 159 149 133 115 97 81 68 55 49 49
275 253 205 196 216 193 194 222 225 236 238 243 261 214 160 177 169 153 147 257 248 281 300 254 232 236 217 212 229 212 209 238 241 247 237 198 200 191 97 41 314 336 291 239 214 253 272 243 258 263 234 245 256 72 12 341 329 289 270 254 249 245 247 256 253 244 246 261 266 267 270 274 45 35 267 168 155 152 150 142 132 120 108 95 82 71 67 62
246 255 208 217 241 217 210 226 206 227 250 244 219 177 119 128 205 169 162 214 228 209 235 243 242 239 229 239 242 217 231 244 230 240 245 206 193 128 82 40 291 274 277 273 126 68 343 269 260 262 258 265 336 70 51 323 306 289 281 275 276 266 253 254 258 260 254 257 267 267 267 276 86 74 77 128 141 141 141 142 137 128 118 111 102 91 85 79
286 290 302 273 254 196 216 231 201 208 232 185 97 133 114 186 213 194 186 211 225 212 211 209 213 233 229 238 248 229 229 243 237 245 245 193 129 82 62 32 254 236 257 269 132 109 178 257 258 255 255 262 250 137 152 183 247 259 251 254 273 275 272 274 279 286 275 260 261 258 257 248 107 100 108 123 129 130 137 146 144 137 129 125 119 108 99 91
309 301 312 319 266 193 219 244 232 225 198 149 174 168 137 101 25 245 216 224 353 245 230 205 181 229 194 197 242 233 217 228 227 220 238 211 135 90 59 28 270 236 283 347 25 125 235 251 255 263 261 250 229 206 193 192 215 245 251 252 280 281 281 286 280 278 265 259 262 260 262 257 117 124 154 148 146 148 150 154 153 147 142 138 131 122 115 106
300 238 149 8 28 174 206 346 301 254 160 162 193 168 158 147 67 23 350 47 31 339 285 109 113 237 193 184 221 219 209 239 239 196 199 193 140 114 82 42 345 210 57 25 358 241 261 268 258 264 262 253 250 245 235 242 237 237 248 252 261 269 269 271 269 259 250 258 259 253 264 267 128 146 179 170 169 167 157 160 161 156 153 148 140 135 130 120
306 282 108 36 46 79 82 51 5 280 156 179 193 158 213 192 110 58 359 58 55 18 339 43 124 226 207 199 220 218 203 219 238 222 210 196 156 129 113 90 61 72 74 41 9 235 257 267 254 258 262 266 274 280 328 343 298 273 268 256 246 250 260 266 265 258 260 265 254 246 261 265 203 182 192 183 184 184 170 173 175 166 160 155 149 145 139 130
343 1 3 1 43 70 86 62 31 19 65 281 238 123 245 211 143 115 72 53 51 47 355 33 216 228 218 212 225 227 208 204 218 225 221 208 164 126 131 172 112 78 109 103 353 253 252 255 250 254 259 267 277 283 297 307 284 277 278 271 265 257 250 250 253 262 276 274 259 260 266 261 248 234 220 198 190 190 182 184 184 175 168 164 158 154 148 141
35 43 23 11 9 34 54 36 16 24 65 12 313 64 343 211 164 114 90 72 73 33 296 207 183 231 234 226 231 221 210 209 211 209 200 198 189 161 164 182 164 127 192 199 141 277 264 263 258 258 260 265 270 272 271 270 267 268 269 269 269 263 254 250 250 257 265 261 262 279 279 262 257 265 259 229 206 204 199 195 189 178 173 170 166 165 162 154
33 52 40 29 36 32 23 4 342 357 51 33 35 55 15 37 100 78 44 12 148 78 326 222 162 93 118 226 249 226 205 220 207 190 190 191 197 208 208 191 174 180 205 210 81 22 282 274 268 267 269 270 268 265 261 259 259 260 260 259 260 259 257 256 255 255 258 258 262 275 277 267 261 276 283 260 220 221 214 197 188 182 178 175 173 174 168 159
34 29 7 344 42 43 21 5 327 287 67 26 34 68 46 42 80 85 48 11 22 62 356 266 128 67 63 109 247 138 62 7 17 100 55 228 190 220 246 247 179 187 205 251 52 129 256 280 299 280 274 272 269 266 259 256 258 260 258 255 256 257 255 254 256 257 257 260 264 266 267 265 259 263 268 263 209 223 210 194 191 189 184 180 180 180 172 163
42 35 7 322 10 18 360 13 353 294 73 50 28 48 50 49 58 79 70 41 30 41 19 358 37 62 133 97 75 63 41 6 355 18 348 297 304 310 276 332 331 242 236 270 253 181 244 267 272 269 269 271 270 265 262 266 270 266 261 255 252 251 252 252 253 252 248 254 261 260 260 265 263 252 245 229 216 224 219 212 204 192 187 187 185 182 174 163
35 33 22 337 343 17 354 6 1 311 55 41 25 40 45 51 63 70 94 69 49 40 25 6 357 291 209 106 62 28 2 339 324 330 320 300 305 300 283 295 295 279 277 279 265 249 259 269 271 266 268 275 276 271 277 284 278 269 264 253 245 248 255 256 254 250 244 245 254 257 261 287 318 270 249 249 248 245 242 234 215 196 190 191 189 183 175 164